This is the latest recevied weather packets stored in our database for station/object KY0TEQ-13. If no packets are shown the sender has not sent any weather packets the latest 10 day(s).
| Time | Temp. | Humidity | Pressure | Rain* | Wind** | Luminosity | Snow |
|---|---|---|---|---|---|---|---|
| 1777760586 | 17.22° C | 15% | 1305.6 hPa | 0 mm | - | 509 W/m² | - |
| 1777760282 | 17.78° C | 15% | 1306 hPa | 0 mm | - | 524 W/m² | - |
| 1777759978 | 17.22° C | 16% | 1306.1 hPa | 0 mm | - | 535 W/m² | - |
| 1777759676 | 17.78° C | 15% | 1306.1 hPa | 0 mm | - | 548 W/m² | - |
| 1777759371 | 18.33° C | 15% | 1306.2 hPa | 0 mm | - | 562 W/m² | - |
| 1777759068 | 17.22° C | 15% | 1306.2 hPa | 0 mm | - | 574 W/m² | - |
| 1777758765 | 16.67° C | 15% | 1306.5 hPa | 0 mm | - | 585 W/m² | - |
| 1777758463 | 16.67° C | 15% | 1306.7 hPa | 0 mm | - | 597 W/m² | - |
| 1777758159 | 16.67° C | 16% | 1306.7 hPa | 0 mm | - | 609 W/m² | - |
| 1777757857 | 16.67° C | 16% | 1306.7 hPa | 0 mm | - | 619 W/m² | - |
| 1777757554 | 16.67° C | 15% | 1306.7 hPa | 0 mm | - | 629 W/m² | - |
| 1777757253 | 17.78° C | 16% | 1306.8 hPa | 0 mm | - | 639 W/m² | - |
| 1777756951 | 18.33° C | 14% | 1306.9 hPa | 0 mm | - | 648 W/m² | - |
| 1777756646 | 16.67° C | 16% | 1306.9 hPa | 0 mm | - | 656 W/m² | - |
| 1777756343 | 16.67° C | 15% | 1307.2 hPa | 0 mm | - | 664 W/m² | - |
| 1777756040 | 16.67° C | 16% | 1307.3 hPa | 0 mm | - | 672 W/m² | - |
| 1777755737 | 16.67° C | 15% | 1307.2 hPa | 0 mm | - | 679 W/m² | - |
| 1777755435 | 16.11° C | 17% | 1307.1 hPa | 0 mm | - | 686 W/m² | - |
| 1777755130 | 16.67° C | 16% | 1307.4 hPa | 0 mm | - | 691 W/m² | - |
| 1777754827 | 16.11° C | 17% | 1307.2 hPa | 0 mm | - | 698 W/m² | - |
| 1777754525 | 15.56° C | 18% | 1307.4 hPa | 0 mm | - | 708 W/m² | - |
| 1777754222 | 16.67° C | 17% | 1307.6 hPa | 0 mm | - | 711 W/m² | - |
| 1777753920 | 16.67° C | 17% | 1307.6 hPa | 0 mm | - | 717 W/m² | - |
| 1777753614 | 15.56° C | 18% | 1307.6 hPa | 0 mm | - | 724 W/m² | - |
| 1777753307 | 15.56° C | 17% | 1307.8 hPa | 0 mm | - | 732 W/m² | - |
* Rain latest hour (hover to see other rain measurements)
** Current wind speed in m/s (hover to see current wind gust speed)